Погода в Валдае

Россия / Республика Карелия     63°25′44″N   35°30′51″E
темп.,
°C
ветер,
м/с
пор.,
м/с
влажн.,
%
обл.,
%
осадки,
мм/ч
давл.,
гПа
погр.,
м
11 мая, вт
вт1100:00+7ююз51498100 1.0 1019486
03:00+7ююз41295100 1.1 1020300
06:00+8ю51096100 0.5 1020263
09:00+9ююз41192100 0.6 1020386
12:00+14юз6127473 0.0 1020667
15:00+16юз61161100 0.0 1020954
18:00+15ююз6126661 0.0 1021759
21:00+13ююз6137596 0.0 1022406
12 мая, ср
ср1200:00+11ююз6148069 0.0 1023310
03:00+9юз41284100 0.0 1023242
06:00+10ююз4108436 0.0 1024235
09:00+13ююз476931 0.0 1024304
12:00+17ююз47555 0.0 1024708
15:00+18ююз46490 0.0 1024905
18:00+17ю46560 0.0 1023528
21:00+14ююв36690 0.0 1023102
13 мая, чт
чт1300:00+11ю35700 0.0 102368
03:00+9ю35720 0.0 102275
06:00+10ю24740 0.0 1022111
09:00+15ю35615 0.0 1021297
12:00+18ююз46545 0.0 1020931
15:00+19юз46515 0.0 10191139
18:00+18ююз36560 0.0 1018742
21:00+15ю22724 0.0 101724
14 мая, пт
пт1400:00+13юв22796 0.0 101615
03:00+12вюв32875 0.0 101525
06:00+13вюв258248 0.0 1014123
09:00+14ююв247797 0.3 1013345
12:00+13ю3588100 2.2 1012269
15:00+11ююз4998100 4.5 1013383
18:00+11ююз488989 0.3 1013408
21:00+10ю489298 0.4 1013192
15 мая, сб
сб1500:00+9ю3893100 0.2 1013163
03:00+8ю259270 0.2 1013103
06:00+9ююз1388100 0.0 101274
09:00+12юз137239 0.0 1013244
12:00+15з12576 0.0 1012729
15:00+18ссз114576 0.0 10111101
18:00+18св3550100 0.0 1010717
21:00+13всв5116890 0.0 1010249